Time,TemperatureF,DewpointF,PressureIn,WindDirection,WindDirectionDegrees,WindSpeedMPH,WindSpeedGustMPH,Humidity,HourlyPrecipIn,Conditions,Clouds,dailyrainin,SoftwareType,DateUTC
2013-09-03 00:12:00,71.0,55.0,30.00,SSE,159,0.0,0.0,57,0.00,,,0.00,,2013-09-03 06:12:00,
2013-09-03 00:22:00,71.0,55.0,30.00,NNE,28,0.0,0.0,57,0.00,,,0.00,,2013-09-03 06:22:00,
2013-09-03 00:52:00,69.0,55.0,30.01,NNE,29,0.0,0.0,62,0.00,,,0.00,,2013-09-03 06:52:00,
2013-09-03 01:12:00,69.0,56.0,30.01,NNE,29,0.0,0.0,63,0.00,,,0.00,,2013-09-03 07:12:00,
2013-09-03 01:22:00,69.0,55.0,30.01,NNE,29,0.0,0.0,62,0.00,,,0.00,,2013-09-03 07:22:00,
2013-09-03 01:52:00,68.0,53.0,30.01,North,5,4.0,6.0,58,0.00,,,0.00,,2013-09-03 07:52:00,
2013-09-03 02:11:00,67.0,52.0,30.01,NNW,342,4.0,7.0,59,0.00,,,0.00,,2013-09-03 08:11:00,
2013-09-03 02:22:00,68.0,53.0,30.01,NNW,341,0.0,0.0,59,0.00,,,0.00,,2013-09-03 08:22:00,
2013-09-03 02:52:00,70.0,54.0,30.02,NNW,341,0.0,0.0,56,0.00,,,0.00,,2013-09-03 08:52:00,
2013-09-03 03:11:00,69.0,55.0,30.03,NNW,341,0.0,0.0,60,0.00,,,0.00,,2013-09-03 09:11:00,
2013-09-03 03:21:00,66.0,54.0,30.03,NNW,341,0.0,0.0,66,0.00,,,0.00,,2013-09-03 09:21:00,
2013-09-03 03:53:00,66.0,54.0,30.03,NNW,341,0.0,0.0,65,0.00,,,0.00,,2013-09-03 09:53:00,
2013-09-03 04:12:00,67.0,54.0,30.03,NNW,341,0.0,0.0,63,0.00,,,0.00,,2013-09-03 10:12:00,
2013-09-03 04:23:00,66.0,53.0,30.03,NNW,346,0.0,1.0,64,0.00,,,0.00,,2013-09-03 10:23:00,
2013-09-03 04:53:00,67.0,53.0,30.03,NNW,346,4.0,7.0,61,0.00,,,0.00,,2013-09-03 10:53:00,
2013-09-03 05:12:00,68.0,53.0,30.03,NNW,344,6.0,7.0,59,0.00,,,0.00,,2013-09-03 11:12:00,
2013-09-03 05:22:00,69.0,53.0,30.03,NNW,333,5.0,6.0,57,0.00,,,0.00,,2013-09-03 11:22:00,
2013-09-03 05:52:00,64.0,52.0,30.05,NNW,335,0.0,0.0,65,0.00,,,0.00,,2013-09-03 11:52:00,
2013-09-03 06:12:00,63.0,52.0,30.05,NNW,335,0.0,0.0,67,0.00,,,0.00,,2013-09-03 12:12:00,
2013-09-03 06:21:00,63.0,52.0,30.05,NNW,335,0.0,0.0,67,0.00,,,0.00,,2013-09-03 12:21:00,
2013-09-03 06:52:00,61.0,51.0,30.06,NNW,342,1.0,5.0,69,0.00,,,0.00,,2013-09-03 12:52:00,
2013-09-03 07:11:00,60.0,50.0,30.06,NNW,347,0.0,5.0,69,0.00,,,0.00,,2013-09-03 13:11:00,
2013-09-03 07:21:00,58.0,49.0,30.07,North,350,0.0,1.0,72,0.00,,,0.00,,2013-09-03 13:21:00,
2013-09-03 07:41:00,59.0,50.0,30.07,North,351,0.0,1.0,72,0.00,,,0.00,,2013-09-03 13:41:00,
2013-09-03 07:52:00,59.0,50.0,30.08,NNW,338,7.0,8.0,73,0.00,,,0.00,,2013-09-03 13:52:00,
2013-09-03 08:11:00,62.0,52.0,30.08,NNW,344,3.0,8.0,71,0.00,,,0.00,,2013-09-03 14:11:00,
2013-09-03 08:21:00,64.0,54.0,30.08,NNW,344,0.0,1.0,71,0.00,,,0.00,,2013-09-03 14:21:00,
2013-09-03 08:52:00,69.0,58.0,30.09,NNW,344,0.0,0.0,67,0.00,,,0.00,,2013-09-03 14:52:00,
2013-09-03 09:22:00,72.0,58.0,30.09,SE,144,6.0,8.0,62,0.00,,,0.00,,2013-09-03 15:22:00,
2013-09-03 09:54:00,73.0,58.0,30.09,SE,144,5.0,8.0,59,0.00,,,0.00,,2013-09-03 15:54:00,
2013-09-03 10:14:00,74.0,58.0,30.10,SE,129,3.0,7.0,58,0.00,,,0.00,,2013-09-03 16:14:00,
2013-09-03 10:24:00,75.0,59.0,30.09,SSE,150,5.0,8.0,58,0.00,,,0.00,,2013-09-03 16:24:00,
2013-09-03 10:54:00,76.0,60.0,30.09,SSE,152,5.0,8.0,57,0.00,,,0.00,,2013-09-03 16:54:00,
2013-09-03 11:12:00,77.0,58.0,30.10,SE,127,6.0,8.0,52,0.00,,,0.00,,2013-09-03 17:12:00,
2013-09-03 11:23:00,77.0,57.0,30.10,SSE,158,6.0,9.0,50,0.00,,,0.00,,2013-09-03 17:23:00,
2013-09-03 11:52:00,79.0,59.0,30.09,SE,124,7.0,11.0,50,0.00,,,0.00,,2013-09-03 17:52:00,
2013-09-03 12:11:00,79.0,58.0,30.09,SSE,155,7.0,9.0,48,0.00,,,0.00,,2013-09-03 18:11:00,
2013-09-03 12:21:00,79.0,57.0,30.09,ESE,120,8.0,10.0,47,0.00,,,0.00,,2013-09-03 18:21:00,
2013-09-03 12:42:00,80.0,58.0,30.09,ESE,104,5.0,9.0,47,0.00,,,0.00,,2013-09-03 18:42:00,
2013-09-03 12:52:00,81.0,56.0,30.08,SE,143,6.0,10.0,42,0.00,,,0.00,,2013-09-03 18:52:00,
2013-09-03 13:11:00,81.0,54.0,30.08,ESE,115,5.0,9.0,39,0.00,,,0.00,,2013-09-03 19:11:00,
2013-09-03 13:22:00,82.0,55.0,30.07,ESE,123,3.0,10.0,39,0.00,,,0.00,,2013-09-03 19:22:00,
2013-09-03 13:42:00,82.0,55.0,30.07,ESE,109,5.0,12.0,40,0.00,,,0.00,,2013-09-03 19:42:00,
2013-09-03 13:52:00,84.0,55.0,30.06,ESE,118,5.0,8.0,37,0.00,,,0.00,,2013-09-03 19:52:00,
2013-09-03 14:11:00,84.0,55.0,30.06,ESE,111,6.0,10.0,37,0.00,,,0.00,,2013-09-03 20:11:00,
2013-09-03 14:21:00,84.0,54.0,30.06,SSE,153,6.0,10.0,36,0.00,,,0.00,,2013-09-03 20:21:00,
2013-09-03 14:42:00,85.0,54.0,30.06,ESE,119,2.0,12.0,35,0.00,,,0.00,,2013-09-03 20:42:00,
2013-09-03 14:52:00,86.0,47.0,30.05,NW,319,6.0,10.0,26,0.00,,,0.00,,2013-09-03 20:52:00,
2013-09-03 15:11:00,87.0,48.0,30.04,NW,320,9.0,14.0,26,0.00,,,0.00,,2013-09-03 21:11:00,
2013-09-03 15:22:00,86.0,48.0,30.04,NNW,344,10.0,16.0,27,0.00,,,0.00,,2013-09-03 21:22:00,
2013-09-03 15:43:00,87.0,50.0,30.04,NNW,336,8.0,18.0,28,0.00,,,0.00,,2013-09-03 21:43:00,
2013-09-03 15:54:00,87.0,49.0,30.03,NW,306,3.0,14.0,27,0.00,,,0.00,,2013-09-03 21:54:00,
2013-09-03 16:13:00,87.0,47.0,30.03,North,355,12.0,18.0,25,0.00,,,0.00,,2013-09-03 22:13:00,
2013-09-03 16:23:00,88.0,49.0,30.03,NNE,14,4.0,12.0,26,0.00,,,0.00,,2013-09-03 22:23:00,
2013-09-03 16:52:00,88.0,49.0,30.03,WNW,287,10.0,15.0,26,0.00,,,0.00,,2013-09-03 22:52:00,
2013-09-03 17:22:00,88.0,50.0,30.02,NNW,329,5.0,12.0,27,0.00,,,0.00,,2013-09-03 23:22:00,
2013-09-03 17:53:00,87.0,48.0,30.03,North,360,1.0,10.0,26,0.00,,,0.00,,2013-09-03 23:53:00,
2013-09-03 18:11:00,86.0,48.0,30.03,North,5,3.0,10.0,27,0.00,,,0.00,,2013-09-04 00:11:00,
2013-09-03 18:22:00,86.0,48.0,30.02,NW,318,6.0,9.0,27,0.00,,,0.00,,2013-09-04 00:22:00,
2013-09-03 18:42:00,85.0,48.0,30.02,NNW,330,7.0,9.0,28,0.00,,,0.00,,2013-09-04 00:42:00,
2013-09-03 18:52:00,85.0,49.0,30.02,NNW,332,5.0,9.0,29,0.00,,,0.00,,2013-09-04 00:52:00,
2013-09-03 19:11:00,86.0,48.0,30.02,WNW,303,3.0,6.0,27,0.00,,,0.00,,2013-09-04 01:11:00,
2013-09-03 19:21:00,86.0,49.0,30.02,NW,314,5.0,7.0,28,0.00,,,0.00,,2013-09-04 01:21:00,
2013-09-03 19:42:00,84.0,48.0,30.02,NW,315,5.0,6.0,29,0.00,,,0.00,,2013-09-04 01:42:00,
2013-09-03 19:52:00,83.0,53.0,30.03,SE,146,0.0,4.0,36,0.00,,,0.00,,2013-09-04 01:52:00,
2013-09-03 20:11:00,79.0,51.0,30.03,SE,146,0.0,0.0,38,0.00,,,0.00,,2013-09-04 02:11:00,
2013-09-03 20:22:00,79.0,50.0,30.04,SSE,154,0.0,0.0,37,0.00,,,0.00,,2013-09-04 02:22:00,
2013-09-03 20:42:00,79.0,52.0,30.04,SSE,154,0.0,0.0,39,0.00,,,0.00,,2013-09-04 02:42:00,
2013-09-03 20:52:00,77.0,53.0,30.04,SSE,154,0.0,0.0,43,0.00,,,0.00,,2013-09-04 02:52:00,
2013-09-03 21:11:00,76.0,53.0,30.05,SSE,154,0.0,0.0,45,0.00,,,0.00,,2013-09-04 03:11:00,
2013-09-03 21:22:00,77.0,51.0,30.06,SSE,154,0.0,0.0,40,0.00,,,0.00,,2013-09-04 03:22:00,
2013-09-03 21:44:00,76.0,50.0,30.06,ESE,111,0.0,0.0,40,0.00,,,0.00,,2013-09-04 03:44:00,
2013-09-03 21:54:00,77.0,49.0,30.06,ESE,111,0.0,0.0,38,0.00,,,0.00,,2013-09-04 03:54:00,
2013-09-03 22:14:00,77.0,50.0,30.06,ESE,111,0.0,0.0,39,0.00,,,0.00,,2013-09-04 04:14:00,
2013-09-03 22:54:00,74.0,49.0,30.07,ESE,111,0.0,0.0,41,0.00,,,0.00,,2013-09-04 04:54:00,
2013-09-03 23:12:00,73.0,48.0,30.07,North,11,1.0,5.0,41,0.00,,,0.00,,2013-09-04 05:12:00,
2013-09-03 23:23:00,73.0,49.0,30.07,NNW,328,4.0,8.0,42,0.00,,,0.00,,2013-09-04 05:23:00,
2013-09-03 23:43:00,72.0,48.0,30.06,NNW,342,6.0,7.0,43,0.00,,,0.00,,2013-09-04 05:43:00,
2013-09-03 23:53:00,72.0,48.0,30.07,NNW,342,0.0,6.0,43,0.00,,,0.00,,2013-09-04 05:53:00,